STARLINK-2332

decayed
NORAD ID: 47876 Int'l Des: 2021-021 Owner: SPXS Country: US Constellation: starlink
LEOCIRCULAR

关于 STARLINK-2332

正在加载描述...

高度历史

Altitude vs Time

uPlot chart will show altitude changes over time

两行轨道根数

1 47876U 21021S 25048.79061936 .17451446 12469-4 55708-3 0 9994
2 47876 53.0250 153.4428 0005319 256.5404 245.5922 16.44612550218330
Epoch: Feb 17, 2025 • Age: 5032 hours

当前状态

Position data unavailable
发射日期 Mar 14, 2021
运行时间 4.5 years
衰减日期 Feb 18, 2025
类型 internet

技术详情

分类 Payload
质量 260.00 kg
干质量 248.00 kg
总质量 260.00 kg
长度 0.20 m
直径 2.80 m
跨度 9.00 m
形状 Box + pan
制造商 SPXS
平台类型 Starlink
阶段状态 Unknown Transfer Status
所有者/国家 SPXS/US

大型星座

Loading constellations...